Kezdőlap
METAR-TAF:

METAR-TAF

Repülőterek :

Langlade County Airport

Antigo, Wisconsin, Amerikai Egyesült Államok

földrajzi szélesség: 45-09-15N, földrajzi hosszúság: 89-06-39W, magasság: 464 m

Jelenlegi meteorológiai megfigyelések

A jelentés 15 perccel ezelõtt készült, 17:35 UTC
Délkeleti szél 9 kt
Hőmérséklet 23°C
Páratartalom 69%
Légköri nyomás 1021 hPa
Látótávolság: 16.1 km
Szórványos felhőzet 8000 lábon

METAR: KAIG 131735Z AUTO 14009KT 10SM SCT080 23/17 A3016 RMK AO2 T02250168

Idő: 12:50 (17:50 UTC)


TAF: hiányzik

Meteorológiai megfigyelések és előrejelzések több, mint 4000 repülőtéren (METAR és TAF jelentéseket).

A térképen piros és sárga pontok jelzik az elérhető meteorológiai állomásokat.

Mozgassa az egeret a pont fölött, hogy megjelenjen az állomás neve.

Azután kattintson az időjárási megfigyelések és előrejelzések megtekintéséhez.

A térkép megváltoztatása: kattintson a fekete keresztel jelölt zöld gombra ráközelítéshez, a vonallal jelölt zöld gombra távolításhoz, vagy a zöld nyilakra a szomszédos térképek eléréséhez.


METAR-TAF: